Wellsville, NY

3:39 PM EDT on September 26, 2017 (GMT -0400)
Wellsville Municipal-Tarantine

Weather History for KELZ - September, 2013

Change the Weather History Date:

Tuesday, September 3, 2013

  Actual Average (KDSV) Record (KDSV)
Temperature  
Mean Temperature 58 °F -  
Max Temperature 64 °F 79 °F 101 °F (1953)
Min Temperature 54 °F 53 °F 39 °F (1976)
Degree Days  
Heating Degree Days 6    
Growing Degree Days 8 (Base 50)    
Moisture  
Dew Point 54 °F    
Average Humidity 87    
Maximum Humidity 94    
Minimum Humidity 72    
Precipitation  
Precipitation 0.07 in - - ()
Sea Level Pressure  
Sea Level Pressure 29.93 in    
Wind  
Wind Speed 8 mph (WNW)    
Max Wind Speed 15 mph    
Max Gust Speed 24 mph    
Visibility 9 miles    
Events Rain    
Averages and records for this station are not official NWS values.
T = Trace of Precipitation, MM = Missing Value Source: NWS Daily Summary

Daily Weather History Graph

Daily Weather History Graph

Search for Another Location

Airport or City:

Trip Planner

Search our weather history database for the weather conditions in past years. The results will help you decide how hot, cold, wet, or windy it might be!

Date:

Astronomy

Sep. 03, 2013 Rise Set
Actual Time 6:39 AM EDT 7:41 PM EDT
Civil Twilight 6:11 AM EDT 8:10 PM EDT
Nautical Twilight 5:36 AM EDT 8:44 PM EDT
Astronomical Twilight 5:01 AM EDT 9:20 PM EDT
Moon 4:50 AM EDT (9/3) 6:28 PM EDT (9/3)
Length of Visible Light 13h 59m
Length of Day
13h 02m
Waning Crescent, 3% of the Moon is Illuminated
Sep 3
Waning Crescent
Sep 5
New
Sep 12
First Quarter
Sep 19
Full
Sep 26
Last Quarter

Hourly Weather History & Observations

Time (EDT) Temp. Dew Point Humidity Pressure Visibility Wind Dir Wind Speed Gust Speed Precip Events Conditions
12:56 AM 60.1 °F 55.9 °F 86% 29.83 in 10.0 mi NW 5.8 mph - N/A   Mostly Cloudy
1:13 AM 57.2 °F 55.4 °F 94% 29.86 in 10.0 mi NW 4.6 mph - N/A   Scattered Clouds
1:56 AM 57.0 °F 54.0 °F 89% 29.83 in 10.0 mi WNW 5.8 mph - N/A   Scattered Clouds
2:06 AM 57.2 °F 53.6 °F 88% 29.86 in 10.0 mi WNW 4.6 mph - N/A   Mostly Cloudy
2:45 AM 55.4 °F 53.6 °F 94% 29.86 in 10.0 mi WNW 3.5 mph - N/A   Scattered Clouds
2:56 AM 55.0 °F 53.1 °F 93% 29.84 in 10.0 mi West 4.6 mph - N/A   Clear
3:56 AM 54.0 °F 52.0 °F 93% 29.84 in 10.0 mi West 5.8 mph - N/A   Partly Cloudy
4:56 AM 55.9 °F 53.1 °F 90% 29.84 in 10.0 mi West 4.6 mph - N/A   Overcast
5:56 AM 57.0 °F 54.0 °F 89% 29.85 in 10.0 mi WSW 5.8 mph - N/A   Overcast
6:56 AM 55.9 °F 53.1 °F 90% 29.87 in 10.0 mi West 8.1 mph - N/A   Mostly Cloudy
7:56 AM 57.0 °F 53.1 °F 87% 29.88 in 10.0 mi West 4.6 mph - N/A   Overcast
8:56 AM 59.0 °F 53.1 °F 81% 29.89 in 10.0 mi West 11.5 mph - N/A   Overcast
9:21 AM 59.0 °F 53.6 °F 82% 29.91 in 10.0 mi WNW 10.4 mph - N/A   Overcast
9:35 AM 59.0 °F 53.6 °F 82% 29.91 in 10.0 mi West 9.2 mph - N/A   Overcast
9:42 AM 60.8 °F 53.6 °F 77% 29.91 in 10.0 mi West 8.1 mph - N/A   Overcast
9:56 AM 59.0 °F 53.1 °F 81% 29.90 in 10.0 mi WNW 10.4 mph 21.9 mph 0.00 in Rain Light Rain
10:16 AM 60.8 °F 53.6 °F 77% 29.92 in 10.0 mi West 11.5 mph - 0.00 in   Overcast
10:26 AM 59.0 °F 53.6 °F 82% 29.93 in 7.0 mi WNW 15.0 mph 18.4 mph 0.00 in Rain Light Rain
10:31 AM 57.2 °F 53.6 °F 88% 29.93 in 2.5 mi WNW 11.5 mph - 0.02 in Rain Heavy Rain
10:45 AM 57.2 °F 55.4 °F 94% 29.93 in 8.0 mi WNW 9.2 mph - 0.03 in Rain Light Rain
10:56 AM 57.9 °F 55.0 °F 90% 29.92 in 10.0 mi West 6.9 mph - 0.03 in Rain Light Rain
11:00 AM 57.2 °F 55.4 °F 94% 29.93 in 10.0 mi West 10.4 mph - 0.00 in Rain Light Rain
11:07 AM 60.8 °F 55.4 °F 82% 29.93 in 10.0 mi West 9.2 mph - 0.00 in Rain Light Rain
11:15 AM 60.8 °F 55.4 °F 82% 29.93 in 10.0 mi West 9.2 mph - 0.00 in   Overcast
11:56 AM 59.0 °F 55.9 °F 90% 29.92 in 6.0 mi WNW 12.7 mph - 0.01 in Rain Light Rain
12:09 PM 60.8 °F 57.2 °F 88% 29.93 in 10.0 mi WNW 13.8 mph - 0.00 in   Overcast
12:56 PM 62.1 °F 55.0 °F 78% 29.92 in 10.0 mi WNW 13.8 mph 24.2 mph 0.01 in   Mostly Cloudy
1:56 PM 63.0 °F 55.0 °F 75% 29.92 in 10.0 mi West 15.0 mph 21.9 mph 0.00 in   Overcast
2:31 PM 62.6 °F 53.6 °F 72% 29.93 in 10.0 mi WNW 12.7 mph 19.6 mph N/A   Overcast
2:56 PM 62.1 °F 53.1 °F 72% 29.92 in 10.0 mi WNW 15.0 mph - N/A   Overcast
3:56 PM 63.0 °F 54.0 °F 72% 29.92 in 10.0 mi WNW 12.7 mph - N/A   Overcast
4:56 PM 60.1 °F 55.0 °F 83% 29.94 in 10.0 mi West 12.7 mph 21.9 mph 0.00 in Rain Light Rain
5:38 PM 60.8 °F 55.4 °F 82% 29.96 in 8.0 mi WNW 11.5 mph - 0.00 in Rain Light Rain
5:48 PM 59.0 °F 55.4 °F 88% 29.96 in 10.0 mi West 10.4 mph - 0.00 in Rain Light Rain
5:56 PM 59.0 °F 55.9 °F 90% 29.96 in 10.0 mi WNW 11.5 mph - 0.00 in   Overcast
6:40 PM 57.2 °F 55.4 °F 94% 29.96 in 10.0 mi WNW 9.2 mph - N/A   Overcast
6:56 PM 57.9 °F 55.0 °F 90% 29.97 in 6.0 mi WNW 9.2 mph - 0.00 in Rain Light Rain
7:03 PM 57.2 °F 55.4 °F 94% 29.97 in 3.0 mi NW 8.1 mph - 0.01 in Rain Light Rain
7:35 PM 57.2 °F 55.4 °F 94% 29.97 in 10.0 mi West 8.1 mph - 0.02 in   Overcast
7:53 PM 57.2 °F 55.4 °F 94% 29.97 in 10.0 mi West 9.2 mph - 0.02 in   Overcast
7:56 PM 57.0 °F 55.0 °F 93% 29.97 in 10.0 mi West 8.1 mph - 0.02 in   Overcast
8:10 PM 57.2 °F 55.4 °F 94% 29.98 in 10.0 mi West 9.2 mph - N/A   Overcast
8:21 PM 57.2 °F 55.4 °F 94% 29.98 in 10.0 mi West 9.2 mph - N/A   Overcast
8:56 PM 57.9 °F 55.0 °F 90% 29.99 in 10.0 mi West 6.9 mph - N/A   Overcast
9:56 PM 57.9 °F 54.0 °F 87% 30.01 in 10.0 mi West 11.5 mph - N/A   Overcast
10:53 PM 57.2 °F 53.6 °F 88% 30.02 in 10.0 mi WNW 9.2 mph - N/A   Mostly Cloudy
10:56 PM 57.0 °F 54.0 °F 89% 30.02 in 10.0 mi WNW 10.4 mph - N/A   Mostly Cloudy
11:26 PM 55.4 °F 53.6 °F 94% 30.02 in 10.0 mi WNW 10.4 mph - N/A   Scattered Clouds
11:56 PM 55.0 °F 53.1 °F 93% 30.03 in 10.0 mi West 9.2 mph - N/A   Scattered Clouds